Weather History for Canadian, TX

Change the Weather History Date:

Wednesday, May 1, 2013

  Actual Average (KPPA) Record (KPPA)
Temperature  
Mean Temperature 53 °F -  
Max Temperature 68 °F 71 °F 91 °F (1981)
Min Temperature 36 °F 44 °F 31 °F (1970)
Degree Days  
Heating Degree Days 12    
Growing Degree Days 3 (Base 50)    
Moisture  
Dew Point 47 °F    
Average Humidity 76    
Maximum Humidity 93    
Minimum Humidity 50    
Precipitation  
Precipitation 0.00 in - - ()
Sea Level Pressure  
Sea Level Pressure 29.97 in    
Wind  
Wind Speed 15 mph (North)    
Max Wind Speed 32 mph    
Max Gust Speed 39 mph    
Visibility 9 miles    
Events      
Averages and records for this station are not official NWS values.
T = Trace of Precipitation, MM = Missing Value Source: NWS Daily Summary

Daily Weather History Graph

Daily Weather History Graph

Search for Another Location

Airport:

Trip Planner

Search our weather history database for the weather conditions in past years. The results will help you decide how hot, cold, wet, or windy it might be!

Date:

Astronomy

May. 01, 2013 Rise Set
Actual Time 6:48 AM CDT 8:28 PM CDT
Civil Twilight 6:21 AM CDT 8:56 PM CDT
Nautical Twilight 5:48 AM CDT 9:29 PM CDT
Astronomical Twilight 5:13 AM CDT 10:04 PM CDT
Moon 1:39 AM CDT (5/1) 12:29 PM CDT (5/1)
Length of Visible Light 14h 34m
Length of Day
13h 39m
Waning Gibbous, 59% of the Moon is Illuminated
May 1
Waning Gibbous
May 2
Last Quarter
May 9
New
May 17
First Quarter
May 24
Full

Hourly Weather History & Observations

Time (CDT) Temp. Windchill Dew Point Humidity Pressure Visibility Wind Dir Wind Speed Gust Speed Precip Events Conditions
12:15 AM 70.0 °F - 59.0 °F 68% 29.68 in 10.0 mi SE 12.7 mph 29.9 mph N/A   Clear
12:55 AM 68.9 °F - 57.6 °F 67% 29.67 in 10.0 mi SE 18.4 mph 26.5 mph N/A   Clear
1:15 AM 68.2 °F - 57.7 °F 69% 29.68 in 10.0 mi SSE 16.1 mph 26.5 mph N/A   Clear
1:35 AM 67.5 °F - 57.7 °F 71% 29.68 in 10.0 mi SE 12.7 mph 21.9 mph N/A   Clear
1:55 AM 67.5 °F - 58.3 °F 72% 29.69 in 10.0 mi SE 9.2 mph 20.7 mph N/A   Clear
2:15 AM 67.1 °F - 58.1 °F 73% 29.69 in 10.0 mi SE 10.4 mph - N/A   Clear
2:35 AM 67.3 °F - 58.5 °F 73% 29.69 in 10.0 mi SSE 13.8 mph 21.9 mph N/A   Clear
2:55 AM 67.1 °F - 58.5 °F 74% 29.69 in 10.0 mi SSE 11.5 mph 17.3 mph N/A   Clear
3:15 AM 66.9 °F - 58.5 °F 74% 29.69 in 10.0 mi SE 11.5 mph 23.0 mph N/A   Clear
3:35 AM 66.2 °F - 58.1 °F 75% 29.70 in 10.0 mi SE 6.9 mph - N/A   Clear
3:55 AM 66.2 °F - 58.3 °F 76% 29.69 in 10.0 mi SSE 6.9 mph 17.3 mph N/A   Clear
4:15 AM 65.7 °F - 58.3 °F 77% 29.70 in 10.0 mi SSE 8.1 mph - N/A   Clear
4:35 AM 65.3 °F - 58.1 °F 77% 29.70 in 10.0 mi SSE 11.5 mph 16.1 mph N/A   Clear
4:55 AM 64.8 °F - 58.1 °F 79% 29.70 in 10.0 mi SSE 10.4 mph - N/A   Clear
5:15 AM 64.6 °F - 58.3 °F 80% 29.70 in 10.0 mi South 12.7 mph 18.4 mph N/A   Clear
5:35 AM 64.4 °F - 58.3 °F 80% 29.70 in 10.0 mi SSE 4.6 mph 9.2 mph N/A   Clear
5:55 AM 64.2 °F - 58.3 °F 81% 29.73 in 10.0 mi South 8.1 mph - N/A   Clear
6:15 AM 63.5 °F - 58.3 °F 83% 29.74 in 10.0 mi SW 4.6 mph - N/A   Clear
6:35 AM 63.0 °F - 58.3 °F 85% 29.75 in 10.0 mi SSW 5.8 mph - N/A   Clear
6:55 AM 62.6 °F - 58.3 °F 86% 29.76 in 10.0 mi SW 6.9 mph - N/A   Clear
7:15 AM 62.1 °F - 58.5 °F 88% 29.79 in 10.0 mi WSW 12.7 mph 18.4 mph N/A   Scattered Clouds
7:35 AM 62.8 °F - 58.1 °F 85% 29.79 in 10.0 mi SW 10.4 mph - N/A   Mostly Cloudy
7:55 AM 61.9 °F - 49.6 °F 64% 29.81 in 10.0 mi West 11.5 mph - N/A   Scattered Clouds
8:15 AM 61.3 °F - 47.1 °F 60% 29.82 in 10.0 mi West 12.7 mph 18.4 mph N/A   Clear
8:35 AM 59.9 °F - 41.2 °F 50% 29.84 in 4.0 mi West 11.5 mph - N/A   Haze
8:55 AM 60.3 °F - 43.3 °F 54% 29.84 in 4.0 mi West 9.2 mph 18.4 mph N/A   Haze
9:15 AM 59.7 °F - 46.2 °F 61% 29.85 in 5.0 mi West 8.1 mph 16.1 mph N/A   Haze
9:35 AM 63.3 °F - 50.2 °F 62% 29.85 in 10.0 mi NW 13.8 mph 19.6 mph N/A   Clear
9:55 AM 64.9 °F - 48.4 °F 55% 29.87 in 7.0 mi NNW 26.5 mph 34.5 mph N/A   Clear
10:15 AM 59.4 °F - 45.9 °F 61% 29.89 in 10.0 mi North 32.2 mph 35.7 mph N/A   Clear
10:35 AM 58.8 °F - 45.9 °F 62% 29.92 in 10.0 mi North 25.3 mph 36.8 mph N/A   Clear
10:55 AM 57.4 °F - 45.0 °F 63% 29.94 in 10.0 mi North 24.2 mph 33.4 mph N/A   Scattered Clouds
11:15 AM 55.6 °F - 44.1 °F 65% 29.96 in 10.0 mi North 32.2 mph 39.1 mph N/A   Overcast
11:35 AM 54.7 °F - 44.4 °F 68% 29.97 in 10.0 mi North 26.5 mph 36.8 mph N/A   Overcast
11:55 AM 54.7 °F - 44.8 °F 69% 29.99 in 10.0 mi North 25.3 mph 36.8 mph N/A   Overcast
12:15 PM 53.6 °F - 44.6 °F 72% 29.99 in 10.0 mi North 24.2 mph 34.5 mph N/A   Overcast
12:35 PM 52.7 °F - 44.6 °F 74% 30.02 in 10.0 mi North 19.6 mph 34.5 mph N/A   Overcast
12:55 PM 52.5 °F - 44.6 °F 74% 30.02 in 10.0 mi North 23.0 mph 32.2 mph N/A   Overcast
1:15 PM 51.3 °F - 44.4 °F 77% 30.04 in 10.0 mi North 26.5 mph 32.2 mph N/A   Overcast
1:35 PM 50.9 °F - 44.2 °F 78% 30.06 in 10.0 mi North 21.9 mph 33.4 mph N/A   Overcast
1:55 PM 50.5 °F - 44.1 °F 78% 30.06 in 10.0 mi North 19.6 mph 34.5 mph N/A   Overcast
2:15 PM 50.2 °F - 43.3 °F 77% 30.07 in 10.0 mi North 18.4 mph 31.1 mph N/A   Overcast
2:35 PM 50.7 °F - 43.5 °F 76% 30.08 in 10.0 mi North 20.7 mph 26.5 mph N/A   Overcast
2:55 PM 50.0 °F - 42.4 °F 75% 30.08 in 10.0 mi North 20.7 mph 27.6 mph N/A   Overcast
3:15 PM 49.1 °F - 41.9 °F 76% 30.09 in 10.0 mi North 17.3 mph 28.8 mph N/A   Overcast
3:35 PM 48.6 °F - 41.2 °F 76% 30.10 in 10.0 mi North 19.6 mph 29.9 mph N/A   Overcast
3:55 PM 47.7 °F - 40.8 °F 77% 30.11 in 10.0 mi North 21.9 mph 32.2 mph N/A   Overcast
4:15 PM 47.3 °F - 40.5 °F 77% 30.11 in 10.0 mi North 19.6 mph 32.2 mph N/A   Overcast
4:35 PM 46.9 °F - 40.6 °F 79% 30.12 in 10.0 mi North 20.7 mph 28.8 mph N/A   Overcast
4:55 PM 46.2 °F 38.3 °F 40.1 °F 79% 30.12 in 10.0 mi North 21.9 mph 31.1 mph N/A   Overcast
5:15 PM 45.5 °F 37.3 °F 39.4 °F 79% 30.13 in 10.0 mi North 21.9 mph 33.4 mph N/A   Overcast
5:35 PM 44.8 °F 35.9 °F 39.0 °F 80% 30.15 in 10.0 mi North 24.2 mph 34.5 mph N/A   Overcast
5:55 PM 44.8 °F 36.6 °F 38.5 °F 79% 30.15 in 10.0 mi North 20.7 mph 26.5 mph N/A   Overcast
6:15 PM 44.1 °F 35.4 °F 37.9 °F 79% 30.16 in 10.0 mi North 21.9 mph 33.4 mph N/A   Overcast
6:55 PM 43.0 °F 34.8 °F 37.8 °F 82% 30.18 in 10.0 mi NNE 18.4 mph 27.6 mph N/A   Overcast
7:15 PM 43.0 °F 35.4 °F 37.8 °F 82% 30.19 in 10.0 mi North 16.1 mph 24.2 mph N/A   Overcast
7:35 PM 42.3 °F 33.8 °F 37.6 °F 83% 30.20 in 10.0 mi North 18.4 mph 27.6 mph N/A   Overcast
7:55 PM 41.9 °F 32.6 °F 37.4 °F 84% 30.21 in 10.0 mi North 21.9 mph 29.9 mph N/A   Overcast
8:15 PM 41.0 °F 31.9 °F 37.0 °F 86% 30.23 in 7.0 mi North 19.6 mph 31.1 mph N/A   Overcast
8:35 PM 40.6 °F 32.7 °F 37.2 °F 88% 30.24 in 7.0 mi North 15.0 mph 28.8 mph N/A   Overcast
8:55 PM 40.1 °F 31.6 °F 36.7 °F 88% 30.25 in 10.0 mi North 16.1 mph 31.1 mph N/A   Overcast
9:15 PM 39.2 °F 29.6 °F 36.0 °F 88% 30.27 in 7.0 mi North 19.6 mph 27.6 mph N/A   Overcast
9:35 PM 38.8 °F 28.3 °F 35.4 °F 88% 30.28 in 10.0 mi North 23.0 mph 34.5 mph N/A   Overcast
9:55 PM 39.0 °F 29.9 °F 35.4 °F 87% 30.29 in 10.0 mi North 17.3 mph 28.8 mph N/A   Overcast
10:35 PM 37.4 °F 26.6 °F 34.0 °F 87% 30.33 in 7.0 mi North 21.9 mph 33.4 mph N/A   Overcast
10:55 PM 37.4 °F 25.6 °F 34.7 °F 90% 30.33 in 5.0 mi North 26.5 mph 33.4 mph N/A   Drizzle
11:15 PM 36.1 °F 25.2 °F 34.3 °F 93% 30.35 in 4.0 mi North 20.7 mph 29.9 mph N/A   Light Drizzle
11:35 PM 36.1 °F 25.0 °F 34.0 °F 92% 30.35 in 7.0 mi North 21.9 mph 31.1 mph N/A   Overcast
11:55 PM 36.1 °F 25.2 °F 34.3 °F 93% 30.35 in 5.0 mi North 20.7 mph 31.1 mph N/A   Light Drizzle